Location: LDNL
(36.4545°S, 141.6685°E)
Time: 03:51:50
(UTC+11:00)

A-11 Canister half - Pass Details

Date: 16 August 2022
Orbit: 1524 x 1684 km, 47.3° (Epoch: 05 October)

Event Time Altitude Azimuth Distance (km) Brightness Sun altitude
Rises 15:39:31 0° 321° (NW) 4,741 12.9 24.0°
Reaches altitude 10° 15:42:39 10° 324° (NW) 3,743 12.8 23.5°
Maximum altitude 15:51:54 63° 42° (NE) 1,694 9.6 22.1°
Drops below altitude 10° 16:01:03 10° 119° (ESE) 3,709 10.5 20.6°
Sets 16:04:08 0° 122° (ESE) 4,696 10.9 20.1°
